Location: Bukit Lungun
(2.6833°N, 113.9667°E)
Time: 14:02:38
(UTC+00:00)

Ariane H10+ - Pass Details

Date: 02 March 2021
Orbit: 236 x 8003 km, 6.7° (Epoch: 13 April)

Event Time Altitude Azimuth Distance (km) Brightness Sun altitude
Rises 13:08:39 0° 267° (W) 10,789 8.8 -38.1°
Reaches altitude 10° 13:19:59 10° 263° (W) 8,229 7.9 -41.0°
Enters shadow 13:40:58 50° 207° (SSW) 2,322 4.3 -46.1°
